START_TIME,STEP,MOV.,A46,t_acc.,A13,t_acc.,M47,t_acc.,A17,t_acc.,A28,t_acc.,M38,t_acc.
1979-03-01 21:00:14.960 ,1,0,,0,0.,4.8,2.,4.8,,0,0.,4.8,29.,4.8
1979-03-01 21:00:19.760 ,1,0,,0,0.,4.8,1.,4.8,,0,0.,4.8,27.,4.8
1979-03-01 21:00:24.560 ,1,0,,0,0.,4.8,1.,4.8,,0,0.,4.8,14.,4.8
1979-03-01 21:00:29.360 ,1,0,,0,0.,4.8,0.,4.8,,0,0.,4.8,16.,4.8
1979-03-01 21:00:34.160 ,1,0,,0,0.,4.8,0.,4.8,,0,0.,4.8,22.,4.8
1979-03-01 21:00:38.960 ,2,0,,0,0.,4.8,1.,4.8,,0,0.,4.8,14.,4.8
1979-03-01 21:00:43.760 ,2,0,,0,0.,4.8,1.,4.8,,0,0.,4.8,21.,4.8
1979-03-01 21:00:48.560 ,2,0,,0,0.,4.8,0.,4.8,,0,0.,4.8,19.,4.8
1979-03-01 21:00:53.360 ,2,0,,0,0.,4.8,0.,4.8,,0,0.,4.8,28.,4.8
1979-03-01 21:00:58.160 ,2,0,,0,0.,4.8,0.,4.8,,0,0.,4.8,19.,4.8
1979-03-01 21:01:02.960 ,3,0,,0,0.,4.8,0.,4.8,,0,0.,4.8,19.,4.8
1979-03-01 21:01:07.760 ,3,0,,0,0.,4.8,1.,4.8,,0,0.,4.8,18.,4.8
1979-03-01 21:01:12.560 ,3,0,,0,0.,4.8,0.,4.8,,0,0.,4.8,37.,4.8
1979-03-01 21:01:17.360 ,3,0,,0,0.,4.8,2.,4.8,,0,0.,4.8,46.,4.8
1979-03-01 21:01:22.160 ,3,0,,0,0.,4.8,3.,4.8,,0,0.,4.8,59.,4.8
1979-03-01 21:01:26.960 ,4,0,,0,0.,4.8,3.,4.8,,0,0.,4.8,57.,4.8
1979-03-01 21:01:31.760 ,4,0,,0,0.,4.8,1.,4.8,,0,0.,4.8,74.,4.8
1979-03-01 21:01:36.560 ,4,0,,0,0.,4.8,0.,4.8,,0,0.,4.8,136.,4.8
1979-03-01 21:01:41.360 ,4,0,,0,0.,4.8,2.,4.8,,0,0.,4.8,136.,4.8
1979-03-01 21:01:46.160 ,4,0,,0,0.,4.8,1.,4.8,,0,1.,4.8,152.,4.8
1979-03-01 21:01:50.960 ,5,0,,0,0.,4.8,0.,4.8,,0,0.,4.8,132.,4.8
1979-03-01 21:01:55.760 ,5,0,,0,0.,4.8,1.,4.8,,0,0.,4.8,176.,4.8
1979-03-01 21:02:00.560 ,5,0,,0,0.,4.8,0.,4.8,,0,0.,4.8,236.,4.8
1979-03-01 21:02:05.360 ,5,0,,0,0.,4.8,0.,4.8,,0,0.,4.8,236.,4.8
1979-03-01 21:02:10.160 ,5,0,,0,0.,4.8,0.,4.8,,0,0.,4.8,232.,4.8
1979-03-01 21:02:14.960 ,6,0,,0,0.,4.8,0.,4.8,,0,0.,4.8,232.,4.8
1979-03-01 21:02:19.760 ,6,0,,0,0.,4.8,0.,4.8,,0,0.,4.8,212.,4.8
1979-03-01 21:02:24.560 ,6,0,,0,0.,4.8,0.,4.8,,0,0.,4.8,176.,4.8
1979-03-01 21:02:29.360 ,6,0,,0,0.,4.8,0.,4.8,,0,0.,4.8,192.,4.8
1979-03-01 21:02:34.160 ,6,0,,0,0.,4.8,1.,4.8,,0,0.,4.8,156.,4.8
1979-03-01 21:02:38.960 ,7,0,,0,0.,4.8,0.,4.8,,0,0.,4.8,168.,4.8
1979-03-01 21:02:43.760 ,7,0,,0,0.,4.8,0.,4.8,,0,0.,4.8,148.,4.8
1979-03-01 21:02:48.560 ,7,0,,0,0.,4.8,0.,4.8,,0,0.,4.8,0.,4.8
1979-03-01 21:02:53.360 ,7,0,,0,0.,4.8,1.,4.8,,0,1.,4.8,0.,4.8
1979-03-01 21:02:58.160 ,7,0,,0,0.,4.8,0.,4.8,,0,0.,4.8,0.,4.8
1979-03-01 21:03:02.960 ,7,0,,0,0.,4.8,1.,4.8,,0,0.,4.8,0.,4.8
1979-03-01 21:03:07.760 ,7,0,,0,0.,4.8,0.,4.8,,0,0.,4.8,0.,4.8
1979-03-01 21:03:12.560 ,7,0,,0,0.,4.8,0.,4.8,,0,0.,4.8,0.,4.8
1979-03-01 21:03:17.360 ,7,0,,0,0.,4.8,1.,4.8,,0,0.,4.8,0.,4.8
1979-03-01 21:03:22.160 ,7,0,,0,1.,4.8,1.,4.8,,0,0.,4.8,0.,4.8
1979-03-01 21:03:26.960 ,6,0,,0,0.,4.8,0.,4.8,,0,0.,4.8,0.,4.8
1979-03-01 21:03:31.760 ,6,0,,0,0.,4.8,1.,4.8,,0,0.,4.8,45.,4.8
1979-03-01 21:03:36.560 ,6,0,,0,0.,4.8,1.,4.8,,0,0.,4.8,164.,4.8
1979-03-01 21:03:41.360 ,6,0,,0,0.,4.8,0.,4.8,,0,0.,4.8,188.,4.8
1979-03-01 21:03:46.160 ,6,0,,0,0.,4.8,0.,4.8,,0,0.,4.8,176.,4.8
1979-03-01 21:03:50.960 ,5,0,,0,0.,4.8,0.,4.8,,0,0.,4.8,164.,4.8
1979-03-01 21:03:55.760 ,5,0,,0,0.,4.8,0.,4.8,,0,0.,4.8,204.,4.8
1979-03-01 21:04:00.560 ,5,0,,0,0.,4.8,1.,4.8,,0,0.,4.8,224.,4.8
1979-03-01 21:04:05.360 ,5,0,,0,0.,4.8,0.,4.8,,0,0.,4.8,212.,4.8
1979-03-01 21:04:10.160 ,5,0,,0,0.,4.8,0.,4.8,,0,0.,4.8,216.,4.8
1979-03-01 21:04:14.960 ,4,0,,0,0.,4.8,0.,4.8,,0,0.,4.8,208.,4.8
1979-03-01 21:04:19.760 ,4,0,,0,0.,4.8,2.,4.8,,0,0.,4.8,200.,4.8
1979-03-01 21:04:24.560 ,4,0,,0,0.,4.8,0.,4.8,,0,0.,4.8,128.,4.8
1979-03-01 21:04:29.360 ,4,0,,0,0.,4.8,0.,4.8,,0,0.,4.8,148.,4.8
1979-03-01 21:04:34.160 ,4,0,,0,0.,4.8,0.,4.8,,0,0.,4.8,136.,4.8
1979-03-01 21:04:38.960 ,3,0,,0,0.,4.8,1.,4.8,,0,0.,4.8,144.,4.8
1979-03-01 21:04:43.760 ,3,0,,0,0.,4.8,0.,4.8,,0,0.,4.8,132.,4.8
1979-03-01 21:04:48.560 ,3,0,,0,0.,4.8,3.,4.8,,0,0.,4.8,40.,4.8
1979-03-01 21:04:53.360 ,3,0,,0,0.,4.8,2.,4.8,,0,0.,4.8,58.,4.8
1979-03-01 21:04:58.160 ,3,0,,0,0.,4.8,0.,4.8,,0,0.,4.8,46.,4.8
1979-03-01 21:05:02.960 ,2,0,,0,0.,4.8,1.,4.8,,0,0.,4.8,52.,4.8
1979-03-01 21:05:07.760 ,2,0,,0,0.,4.8,2.,4.8,,0,0.,4.8,45.,4.8
1979-03-01 21:05:12.560 ,2,0,,0,0.,4.8,0.,4.8,,0,0.,4.8,17.,4.8
1979-03-01 21:05:17.360 ,2,0,,0,0.,4.8,0.,4.8,,0,0.,4.8,24.,4.8
1979-03-01 21:05:22.160 ,2,0,,0,0.,4.8,0.,4.8,,0,0.,4.8,14.,4.8
1979-03-01 21:05:26.960 ,1,0,,0,0.,4.8,2.,4.8,,0,0.,4.8,13.,4.8
1979-03-01 21:05:31.760 ,1,0,,0,0.,4.8,0.,4.8,,0,0.,4.8,17.,4.8
1979-03-01 21:05:36.560 ,1,0,,0,0.,4.8,0.,4.8,,0,0.,4.8,17.,4.8
1979-03-01 21:05:41.360 ,1,0,,0,0.,4.8,0.,4.8,,0,1.,4.8,16.,4.8
1979-03-01 21:05:46.160 ,1,0,,0,0.,4.8,0.,4.8,,0,0.,4.8,20.,4.8
1979-03-01 21:05:50.960 ,0,0,,0,0.,4.8,0.,4.8,,0,0.,4.8,21.,4.8
1979-03-01 21:05:55.760 ,0,0,,0,0.,4.8,0.,4.8,,0,0.,4.8,19.,4.8
1979-03-01 21:06:00.560 ,0,0,,0,0.,4.8,1.,4.8,,0,0.,4.8,24.,4.8
1979-03-01 21:06:05.360 ,0,0,,0,0.,4.8,1.,4.8,,0,0.,4.8,23.,4.8
1979-03-01 21:06:10.160 ,0,0,,0,0.,4.8,1.,4.8,,0,0.,4.8,22.,4.8
1979-03-01 21:06:14.960 ,0,0,,0,0.,4.8,1.,4.8,,0,0.,4.8,26.,4.8
1979-03-01 21:06:19.760 ,0,0,,0,0.,4.8,0.,4.8,,0,0.,4.8,25.,4.8
1979-03-01 21:06:24.560 ,0,0,,0,0.,4.8,0.,4.8,,0,0.,4.8,14.,4.8
1979-03-01 21:06:29.360 ,0,0,,0,0.,4.8,0.,4.8,,0,0.,4.8,28.,4.8
1979-03-01 21:06:34.160 ,0,0,,0,0.,4.8,0.,4.8,,0,0.,4.8,24.,4.8
1979-03-01 21:06:38.960 ,1,0,,0,0.,4.8,0.,4.8,,0,0.,4.8,13.,4.8
1979-03-01 21:06:43.760 ,1,0,,0,0.,4.8,0.,4.8,,0,0.,4.8,22.,4.8
1979-03-01 21:06:48.560 ,1,0,,0,0.,4.8,1.,4.8,,0,0.,4.8,10.,4.8
1979-03-01 21:06:53.360 ,1,0,,0,0.,4.8,1.,4.8,,0,0.,4.8,14.,4.8
1979-03-01 21:06:58.160 ,1,0,,0,0.,4.8,0.,4.8,,0,0.,4.8,14.,4.8
1979-03-01 21:07:02.960 ,2,0,,0,0.,4.8,0.,4.8,,0,0.,4.8,14.,4.8
1979-03-01 21:07:07.760 ,2,0,,0,0.,4.8,0.,4.8,,0,0.,4.8,12.,4.8
1979-03-01 21:07:12.560 ,2,0,,0,0.,4.8,1.,4.8,,0,0.,4.8,19.,4.8
1979-03-01 21:07:17.360 ,2,0,,0,0.,4.8,0.,4.8,,0,0.,4.8,12.,4.8
1979-03-01 21:07:22.160 ,2,0,,0,0.,4.8,0.,4.8,,0,0.,4.8,14.,4.8
1979-03-01 21:07:26.960 ,3,0,,0,1.,4.8,1.,4.8,,0,0.,4.8,13.,4.8
1979-03-01 21:07:31.760 ,3,0,,0,0.,4.8,0.,4.8,,0,0.,4.8,41.,4.8
1979-03-01 21:07:36.560 ,3,0,,0,0.,4.8,3.,4.8,,0,0.,4.8,61.,4.8
1979-03-01 21:07:41.360 ,3,0,,0,0.,4.8,2.,4.8,,0,0.,4.8,45.,4.8
1979-03-01 21:07:46.160 ,3,0,,0,0.,4.8,3.,4.8,,0,0.,4.8,49.,4.8
1979-03-01 21:07:50.960 ,4,0,,0,0.,4.8,2.,4.8,,0,0.,4.8,43.,4.8
1979-03-01 21:07:55.760 ,4,0,,0,0.,4.8,1.,4.8,,0,0.,4.8,72.,4.8
1979-03-01 21:08:00.560 ,4,0,,0,0.,4.8,0.,4.8,,0,0.,4.8,100.,4.8
1979-03-01 21:08:05.360 ,4,0,,0,0.,4.8,0.,4.8,,0,0.,4.8,100.,4.8
1979-03-01 21:08:10.160 ,4,0,,0,0.,4.8,0.,4.8,,0,0.,4.8,106.,4.8
1979-03-01 21:08:14.960 ,5,0,,0,0.,4.8,0.,4.8,,0,0.,4.8,110.,4.8
1979-03-01 21:08:19.760 ,5,0,,0,0.,4.8,0.,4.8,,0,0.,4.8,118.,4.8
1979-03-01 21:08:24.560 ,5,0,,0,0.,4.8,0.,4.8,,0,0.,4.8,152.,4.8
1979-03-01 21:08:29.360 ,5,0,,0,0.,4.8,0.,4.8,,0,0.,4.8,128.,4.8
1979-03-01 21:08:34.160 ,5,0,,0,0.,4.8,0.,4.8,,0,0.,4.8,148.,4.8
1979-03-01 21:08:38.960 ,6,0,,0,0.,4.8,0.,4.8,,0,0.,4.8,128.,4.8
1979-03-01 21:08:43.760 ,6,0,,0,0.,4.8,1.,4.8,,0,0.,4.8,124.,4.8
1979-03-01 21:08:48.560 ,6,0,,0,1.,4.8,0.,4.8,,0,0.,4.8,104.,4.8
1979-03-01 21:08:53.360 ,6,0,,0,0.,4.8,0.,4.8,,0,0.,4.8,120.,4.8
1979-03-01 21:08:58.160 ,6,0,,0,0.,4.8,0.,4.8,,0,0.,4.8,140.,4.8
1979-03-01 21:09:02.960 ,7,0,,0,0.,4.8,0.,4.8,,0,0.,4.8,132.,4.8
1979-03-01 21:09:07.760 ,7,0,,0,0.,4.8,0.,4.8,,0,0.,4.8,72.,4.8
1979-03-01 21:09:12.560 ,7,0,,0,0.,4.8,0.,4.8,,0,0.,4.8,0.,4.8
1979-03-01 21:09:17.360 ,7,0,,0,0.,4.8,0.,4.8,,0,0.,4.8,0.,4.8
1979-03-01 21:09:22.160 ,7,0,,0,0.,4.8,0.,4.8,,0,0.,4.8,0.,4.8
1979-03-01 21:09:26.960 ,7,0,,0,0.,4.8,1.,4.8,,0,0.,4.8,0.,4.8
1979-03-01 21:09:31.760 ,7,0,,0,0.,4.8,1.,4.8,,0,0.,4.8,0.,4.8
1979-03-01 21:09:36.560 ,7,0,,0,0.,4.8,0.,4.8,,0,0.,4.8,0.,4.8
1979-03-01 21:09:41.360 ,7,0,,0,0.,4.8,0.,4.8,,0,0.,4.8,0.,4.8
1979-03-01 21:09:46.160 ,7,0,,0,0.,4.8,0.,4.8,,0,0.,4.8,0.,4.8
1979-03-01 21:09:50.960 ,6,0,,0,0.,4.8,0.,4.8,,0,0.,4.8,0.,4.8
1979-03-01 21:09:55.760 ,6,0,,0,0.,4.8,0.,4.8,,0,0.,4.8,35.,4.8
1979-03-01 21:10:00.560 ,6,0,,0,0.,4.8,2.,4.8,,0,0.,4.8,108.,4.8
1979-03-01 21:10:05.360 ,6,0,,0,0.,4.8,0.,4.8,,0,0.,4.8,110.,4.8
1979-03-01 21:10:10.160 ,6,0,,0,0.,4.8,0.,4.8,,0,0.,4.8,136.,4.8
1979-03-01 21:10:14.960 ,5,0,,0,0.,4.8,0.,4.8,,0,0.,4.8,124.,4.8
1979-03-01 21:10:19.760 ,5,0,,0,0.,4.8,0.,4.8,,0,0.,4.8,132.,4.8
1979-03-01 21:10:24.560 ,5,0,,0,0.,4.8,0.,4.8,,0,1.,4.8,152.,4.8
1979-03-01 21:10:29.360 ,5,0,,0,0.,4.8,0.,4.8,,0,0.,4.8,172.,4.8
1979-03-01 21:10:34.160 ,5,0,,0,0.,4.8,0.,4.8,,0,0.,4.8,172.,4.8
1979-03-01 21:10:38.960 ,4,0,,0,0.,4.8,0.,4.8,,0,0.,4.8,196.,4.8
1979-03-01 21:10:43.760 ,4,0,,0,0.,4.8,0.,4.8,,0,0.,4.8,128.,4.8
1979-03-01 21:10:48.560 ,4,0,,0,0.,4.8,0.,4.8,,0,0.,4.8,102.,4.8
1979-03-01 21:10:53.360 ,4,0,,0,0.,4.8,0.,4.8,,0,0.,4.8,110.,4.8
1979-03-01 21:10:58.160 ,4,0,,0,0.,4.8,0.,4.8,,0,0.,4.8,108.,4.8
1979-03-01 21:11:02.960 ,3,0,,0,0.,4.8,1.,4.8,,0,0.,4.8,98.,4.8
1979-03-01 21:11:07.760 ,3,0,,0,0.,4.8,1.,4.8,,0,0.,4.8,98.,4.8
1979-03-01 21:11:12.560 ,3,0,,0,0.,4.8,2.,4.8,,0,0.,4.8,57.,4.8
1979-03-01 21:11:17.360 ,3,0,,0,0.,4.8,2.,4.8,,0,0.,4.8,53.,4.8
1979-03-01 21:11:22.160 ,3,0,,0,0.,4.8,0.,4.8,,0,0.,4.8,47.,4.8
1979-03-01 21:11:26.960 ,2,0,,0,0.,4.8,2.,4.8,,0,0.,4.8,44.,4.8
1979-03-01 21:11:31.760 ,2,0,,0,0.,4.8,0.,4.8,,0,0.,4.8,34.,4.8
1979-03-01 21:11:36.560 ,2,0,,0,0.,4.8,0.,4.8,,0,0.,4.8,15.,4.8
1979-03-01 21:11:41.360 ,2,0,,0,0.,4.8,0.,4.8,,0,0.,4.8,25.,4.8
1979-03-01 21:11:46.160 ,2,0,,0,0.,4.8,0.,4.8,,0,0.,4.8,16.,4.8
1979-03-01 21:11:50.960 ,1,0,,0,0.,4.8,0.,4.8,,0,0.,4.8,20.,4.8
1979-03-01 21:11:55.760 ,1,0,,0,0.,4.8,0.,4.8,,0,1.,4.8,19.,4.8
1979-03-01 21:12:00.560 ,1,0,,0,0.,4.8,0.,4.8,,0,0.,4.8,17.,4.8
1979-03-01 21:12:05.360 ,1,0,,0,0.,4.8,0.,4.8,,0,0.,4.8,19.,4.8
1979-03-01 21:12:10.160 ,1,0,,0,0.,4.8,0.,4.8,,0,0.,4.8,15.,4.8
1979-03-01 21:12:14.960 ,0,0,,0,0.,4.8,0.,4.8,,0,0.,4.8,20.,4.8
1979-03-01 21:12:19.760 ,0,0,,0,0.,4.8,0.,4.8,,0,0.,4.8,18.,4.8
1979-03-01 21:12:24.560 ,0,0,,0,1.,4.8,0.,4.8,,0,0.,4.8,26.,4.8
1979-03-01 21:12:29.360 ,0,0,,0,0.,4.8,0.,4.8,,0,0.,4.8,28.,4.8
1979-03-01 21:12:34.160 ,0,0,,0,0.,4.8,0.,4.8,,0,0.,4.8,26.,4.8
1979-03-01 21:12:38.960 ,0,0,,0,0.,4.8,0.,4.8,,0,0.,4.8,26.,4.8
1979-03-01 21:12:43.760 ,0,0,,0,0.,4.8,0.,4.8,,0,0.,4.8,33.,4.8
1979-03-01 21:12:48.560 ,0,0,,0,0.,4.8,1.,4.8,,0,0.,4.8,25.,4.8
1979-03-01 21:12:53.360 ,0,0,,0,0.,4.8,0.,4.8,,0,0.,4.8,29.,4.8
1979-03-01 21:12:58.160 ,0,0,,0,0.,4.8,0.,4.8,,0,0.,4.8,20.,4.8
1979-03-01 21:13:02.960 ,1,0,,0,0.,4.8,0.,4.8,,0,1.,4.8,26.,4.8
1979-03-01 21:13:07.760 ,1,0,,0,0.,4.8,0.,4.8,,0,0.,4.8,24.,4.8
1979-03-01 21:13:12.560 ,1,0,,0,0.,4.8,0.,4.8,,0,0.,4.8,19.,4.8
1979-03-01 21:13:17.360 ,1,0,,0,0.,4.8,0.,4.8,,0,0.,4.8,17.,4.8
1979-03-01 21:13:22.160 ,1,0,,0,0.,4.8,0.,4.8,,0,0.,4.8,19.,4.8
1979-03-01 21:13:26.960 ,2,0,,0,0.,4.8,1.,4.8,,0,0.,4.8,17.,4.8
1979-03-01 21:13:31.760 ,2,0,,0,0.,4.8,0.,4.8,,0,0.,4.8,11.,4.8
1979-03-01 21:13:36.560 ,2,0,,0,0.,4.8,1.,4.8,,0,0.,4.8,20.,4.8
1979-03-01 21:13:41.360 ,2,0,,0,0.,4.8,0.,4.8,,0,0.,4.8,23.,4.8
1979-03-01 21:13:46.160 ,2,0,,0,0.,4.8,0.,4.8,,0,0.,4.8,15.,4.8
1979-03-01 21:13:50.960 ,3,0,,0,0.,4.8,1.,4.8,,0,0.,4.8,16.,4.8
1979-03-01 21:13:55.760 ,3,0,,0,0.,4.8,0.,4.8,,0,0.,4.8,18.,4.8
1979-03-01 21:14:00.560 ,3,0,,0,0.,4.8,3.,4.8,,0,0.,4.8,38.,4.8
1979-03-01 21:14:05.360 ,3,0,,0,0.,4.8,1.,4.8,,0,0.,4.8,38.,4.8
1979-03-01 21:14:10.160 ,3,0,,0,1.,4.8,2.,4.8,,0,0.,4.8,40.,4.8
1979-03-01 21:14:14.960 ,4,0,,0,0.,4.8,2.,4.8,,0,0.,4.8,27.,4.8
1979-03-01 21:14:19.760 ,4,0,,0,0.,4.8,0.,4.8,,0,0.,4.8,49.,4.8
1979-03-01 21:14:24.560 ,4,0,,0,0.,4.8,0.,4.8,,0,0.,4.8,78.,4.8
1979-03-01 21:14:29.360 ,4,0,,0,0.,4.8,0.,4.8,,0,0.,4.8,98.,4.8
1979-03-01 21:14:34.160 ,4,0,,0,0.,4.8,1.,4.8,,0,0.,4.8,84.,4.8
1979-03-01 21:14:38.960 ,5,0,,0,0.,4.8,0.,4.8,,0,0.,4.8,70.,4.8
1979-03-01 21:14:43.760 ,5,0,,0,0.,4.8,1.,4.8,,0,0.,4.8,78.,4.8
1979-03-01 21:14:48.560 ,5,0,,0,0.,4.8,0.,4.8,,0,0.,4.8,104.,4.8
1979-03-01 21:14:53.360 ,5,0,,0,0.,4.8,0.,4.8,,0,0.,4.8,106.,4.8
1979-03-01 21:14:58.160 ,5,0,,0,0.,4.8,0.,4.8,,0,1.,4.8,112.,4.8
1979-03-01 21:15:02.960 ,6,0,,0,0.,4.8,0.,4.8,,0,0.,4.8,116.,4.8
1979-03-01 21:15:07.760 ,6,0,,0,0.,4.8,0.,4.8,,0,0.,4.8,98.,4.8
1979-03-01 21:15:12.560 ,6,0,,0,0.,4.8,0.,4.8,,0,0.,4.8,68.,4.8
1979-03-01 21:15:17.360 ,6,0,,0,1.,4.8,0.,4.8,,0,0.,4.8,66.,4.8
1979-03-01 21:15:22.160 ,6,0,,0,0.,4.8,0.,4.8,,0,0.,4.8,80.,4.8
1979-03-01 21:15:26.960 ,7,0,,0,0.,4.8,0.,4.8,,0,0.,4.8,72.,4.8
1979-03-01 21:15:31.760 ,7,0,,0,0.,4.8,0.,4.8,,0,0.,4.8,49.,4.8
1979-03-01 21:15:36.560 ,7,0,,0,0.,4.8,1.,4.8,,0,0.,4.8,0.,4.8
1979-03-01 21:15:41.360 ,7,0,,0,0.,4.8,0.,4.8,,0,0.,4.8,0.,4.8
1979-03-01 21:15:46.160 ,7,0,,0,1.,4.8,1.,4.8,,0,0.,4.8,0.,4.8
1979-03-01 21:15:50.960 ,7,0,,0,0.,4.8,0.,4.8,,0,0.,4.8,0.,4.8
1979-03-01 21:15:55.760 ,7,0,,0,0.,4.8,1.,4.8,,0,1.,4.8,0.,4.8
1979-03-01 21:16:00.560 ,7,0,,0,0.,4.8,0.,4.8,,0,0.,4.8,0.,4.8
1979-03-01 21:16:05.360 ,7,0,,0,0.,4.8,0.,4.8,,0,0.,4.8,0.,4.8
1979-03-01 21:16:10.160 ,7,0,,0,0.,4.8,0.,4.8,,0,0.,4.8,0.,4.8
1979-03-01 21:16:14.960 ,6,0,,0,0.,4.8,0.,4.8,,0,0.,4.8,0.,4.8
1979-03-01 21:16:19.760 ,6,0,,0,1.,4.8,0.,4.8,,0,0.,4.8,26.,4.8
1979-03-01 21:16:24.560 ,6,0,,0,0.,4.8,1.,4.8,,0,0.,4.8,80.,4.8
1979-03-01 21:16:29.360 ,6,0,,0,0.,4.8,0.,4.8,,0,0.,4.8,72.,4.8
1979-03-01 21:16:34.160 ,6,0,,0,0.,4.8,0.,4.8,,0,0.,4.8,80.,4.8
1979-03-01 21:16:38.960 ,5,0,,0,0.,4.8,0.,4.8,,0,0.,4.8,70.,4.8
1979-03-01 21:16:43.760 ,5,0,,0,0.,4.8,1.,4.8,,0,0.,4.8,82.,4.8
1979-03-01 21:16:48.560 ,5,0,,0,0.,4.8,0.,4.8,,0,0.,4.8,98.,4.8
1979-03-01 21:16:53.360 ,5,0,,0,0.,4.8,0.,4.8,,0,0.,4.8,88.,4.8
1979-03-01 21:16:58.160 ,5,0,,0,0.,4.8,0.,4.8,,0,0.,4.8,78.,4.8
1979-03-01 21:17:02.960 ,4,0,,0,0.,4.8,0.,4.8,,0,0.,4.8,84.,4.8
1979-03-01 21:17:07.760 ,4,0,,0,0.,4.8,0.,4.8,,0,0.,4.8,84.,4.8
1979-03-01 21:17:12.560 ,4,0,,0,0.,4.8,1.,4.8,,0,0.,4.8,74.,4.8
1979-03-01 21:17:17.360 ,4,0,,0,0.,4.8,0.,4.8,,0,0.,4.8,47.,4.8
1979-03-01 21:17:22.160 ,4,0,,0,0.,4.8,0.,4.8,,0,0.,4.8,62.,4.8
1979-03-01 21:17:26.960 ,3,0,,0,0.,4.8,0.,4.8,,0,0.,4.8,60.,4.8
1979-03-01 21:17:31.760 ,3,0,,0,0.,4.8,0.,4.8,,0,0.,4.8,51.,4.8
1979-03-01 21:17:36.560 ,3,0,,0,0.,4.8,1.,4.8,,0,0.,4.8,29.,4.8
1979-03-01 21:17:41.360 ,3,0,,0,0.,4.8,4.,4.8,,0,0.,4.8,35.,4.8
1979-03-01 21:17:46.160 ,3,0,,0,0.,4.8,4.,4.8,,0,0.,4.8,32.,4.8
1979-03-01 21:17:50.960 ,2,0,,0,0.,4.8,3.,4.8,,0,0.,4.8,38.,4.8
1979-03-01 21:17:55.760 ,2,0,,0,0.,4.8,2.,4.8,,0,0.,4.8,40.,4.8
1979-03-01 21:18:00.560 ,2,0,,0,0.,4.8,0.,4.8,,0,0.,4.8,27.,4.8
1979-03-01 21:18:05.360 ,2,0,,0,0.,4.8,0.,4.8,,0,0.,4.8,22.,4.8
1979-03-01 21:18:10.160 ,2,0,,0,0.,4.8,0.,4.8,,0,0.,4.8,13.,4.8
1979-03-01 21:18:14.960 ,1,0,,0,0.,4.8,1.,4.8,,0,0.,4.8,20.,4.8
1979-03-01 21:18:19.760 ,1,0,,0,1.,4.8,0.,4.8,,0,0.,4.8,21.,4.8
1979-03-01 21:18:24.560 ,1,0,,0,0.,4.8,0.,4.8,,0,0.,4.8,20.,4.8
1979-03-01 21:18:29.360 ,1,0,,0,0.,4.8,0.,4.8,,0,0.,4.8,15.,4.8
1979-03-01 21:18:34.160 ,1,0,,0,0.,4.8,1.,4.8,,0,0.,4.8,21.,4.8
1979-03-01 21:18:38.960 ,0,0,,0,0.,4.8,0.,4.8,,0,0.,4.8,22.,4.8
1979-03-01 21:18:43.760 ,0,0,,0,0.,4.8,0.,4.8,,0,0.,4.8,29.,4.8
1979-03-01 21:18:48.560 ,0,0,,0,0.,4.8,0.,4.8,,0,0.,4.8,27.,4.8
1979-03-01 21:18:53.360 ,0,0,,0,0.,4.8,1.,4.8,,0,0.,4.8,32.,4.8
1979-03-01 21:18:58.160 ,0,0,,0,0.,4.8,1.,4.8,,0,0.,4.8,32.,4.8
1979-03-01 21:19:02.960 ,0,0,,0,0.,4.8,0.,4.8,,0,0.,4.8,23.,4.8
1979-03-01 21:19:07.760 ,0,0,,0,1.,4.8,0.,4.8,,0,0.,4.8,30.,4.8
1979-03-01 21:19:12.560 ,0,0,,0,0.,4.8,0.,4.8,,0,0.,4.8,38.,4.8
1979-03-01 21:19:17.360 ,0,0,,0,0.,4.8,1.,4.8,,0,0.,4.8,27.,4.8
1979-03-01 21:19:22.160 ,0,0,,0,0.,4.8,1.,4.8,,0,0.,4.8,30.,4.8
1979-03-01 21:19:26.960 ,1,0,,0,0.,4.8,0.,4.8,,0,0.,4.8,33.,4.8
1979-03-01 21:19:31.760 ,1,0,,0,0.,4.8,0.,4.8,,0,0.,4.8,27.,4.8
1979-03-01 21:19:36.560 ,1,0,,0,0.,4.8,1.,4.8,,0,0.,4.8,36.,4.8
1979-03-01 21:19:41.360 ,1,0,,0,0.,4.8,0.,4.8,,0,0.,4.8,25.,4.8
1979-03-01 21:19:46.160 ,1,0,,0,0.,4.8,0.,4.8,,0,0.,4.8,28.,4.8
1979-03-01 21:19:50.960 ,2,0,,0,0.,4.8,0.,4.8,,0,0.,4.8,18.,4.8
1979-03-01 21:19:55.760 ,2,0,,0,1.,4.8,0.,4.8,,0,0.,4.8,19.,4.8
1979-03-01 21:20:00.560 ,2,0,,0,0.,4.8,1.,4.8,,0,0.,4.8,26.,4.8
1979-03-01 21:20:05.360 ,2,0,,0,0.,4.8,0.,4.8,,0,0.,4.8,22.,4.8
1979-03-01 21:20:10.160 ,2,0,,0,0.,4.8,0.,4.8,,0,0.,4.8,19.,4.8
1979-03-01 21:20:14.960 ,3,0,,0,1.,4.8,0.,4.8,,0,0.,4.8,18.,4.8
1979-03-01 21:20:19.760 ,3,0,,0,0.,4.8,0.,4.8,,0,0.,4.8,30.,4.8
1979-03-01 21:20:24.560 ,3,0,,0,0.,4.8,2.,4.8,,0,0.,4.8,48.,4.8
1979-03-01 21:20:29.360 ,3,0,,0,0.,4.8,1.,4.8,,0,0.,4.8,47.,4.8
1979-03-01 21:20:34.160 ,3,0,,0,0.,4.8,2.,4.8,,0,0.,4.8,46.,4.8
1979-03-01 21:20:38.960 ,4,0,,0,0.,4.8,1.,4.8,,0,0.,4.8,35.,4.8
1979-03-01 21:20:43.760 ,4,0,,0,0.,4.8,0.,4.8,,0,0.,4.8,52.,4.8
1979-03-01 21:20:48.560 ,4,0,,0,0.,4.8,0.,4.8,,0,0.,4.8,70.,4.8
1979-03-01 21:20:53.360 ,4,0,,0,0.,4.8,0.,4.8,,0,0.,4.8,84.,4.8
1979-03-01 21:20:58.160 ,4,0,,0,0.,4.8,0.,4.8,,0,0.,4.8,86.,4.8
1979-03-01 21:21:02.960 ,5,0,,0,0.,4.8,0.,4.8,,0,0.,4.8,78.,4.8
1979-03-01 21:21:07.760 ,5,0,,0,0.,4.8,0.,4.8,,0,0.,4.8,82.,4.8
1979-03-01 21:21:12.560 ,5,0,,0,0.,4.8,0.,4.8,,0,0.,4.8,76.,4.8
1979-03-01 21:21:17.360 ,5,0,,0,0.,4.8,0.,4.8,,0,0.,4.8,68.,4.8
1979-03-01 21:21:22.160 ,5,0,,0,0.,4.8,0.,4.8,,0,0.,4.8,80.,4.8
1979-03-01 21:21:50.960 ,7,0,,0,0.,4.8,0.,4.8,,0,0.,4.8,70.,4.8
1979-03-01 21:21:55.760 ,7,0,,0,0.,4.8,0.,4.8,,0,0.,4.8,53.,4.8
1979-03-01 21:22:00.560 ,7,0,,0,0.,4.8,0.,4.8,,0,0.,4.8,0.,4.8
1979-03-01 21:22:05.360 ,7,0,,0,0.,4.8,0.,4.8,,0,0.,4.8,0.,4.8
1979-03-01 21:22:10.160 ,7,0,,0,0.,4.8,0.,4.8,,0,0.,4.8,0.,4.8
1979-03-01 21:22:14.960 ,7,0,,0,0.,4.8,1.,4.8,,0,0.,4.8,0.,4.8
1979-03-01 21:22:19.760 ,7,0,,0,1.,4.8,0.,4.8,,0,0.,4.8,0.,4.8
1979-03-01 21:22:24.560 ,7,0,,0,0.,4.8,0.,4.8,,0,0.,4.8,0.,4.8
1979-03-01 21:22:29.360 ,7,0,,0,1.,4.8,0.,4.8,,0,0.,4.8,0.,4.8
1979-03-01 21:22:34.160 ,7,0,,0,0.,4.8,0.,4.8,,0,0.,4.8,0.,4.8
1979-03-01 21:22:38.960 ,6,0,,0,1.,4.8,0.,4.8,,0,0.,4.8,0.,4.8
1979-03-01 21:22:43.760 ,6,0,,0,0.,4.8,0.,4.8,,0,0.,4.8,32.,4.8
1979-03-01 21:22:48.560 ,6,0,,0,0.,4.8,1.,4.8,,0,0.,4.8,108.,4.8
1979-03-01 21:22:53.360 ,6,0,,0,0.,4.8,0.,4.8,,0,0.,4.8,98.,4.8
1979-03-01 21:22:58.160 ,6,0,,0,0.,4.8,0.,4.8,,0,0.,4.8,122.,4.8
1979-03-01 21:23:02.960 ,0,0,,0,0.,4.8,0.,4.8,,0,0.,4.8,110.,4.8
1979-03-01 21:23:07.760 ,0,0,,0,0.,4.8,0.,4.8,,0,0.,4.8,102.,4.8
1979-03-01 21:23:12.560 ,0,0,,0,0.,4.8,0.,4.8,,0,0.,4.8,90.,4.8
1979-03-01 21:23:17.360 ,0,0,,0,0.,4.8,0.,4.8,,0,0.,4.8,86.,4.8
1979-03-01 21:23:22.160 ,0,0,,0,0.,4.8,1.,4.8,,0,0.,4.8,98.,4.8
1979-03-01 21:23:26.960 ,0,0,,0,1.,4.8,0.,4.8,,0,0.,4.8,92.,4.8
1979-03-01 21:23:31.760 ,0,0,,0,0.,4.8,0.,4.8,,0,0.,4.8,72.,4.8
1979-03-01 21:23:36.560 ,0,0,,0,0.,4.8,0.,4.8,,0,0.,4.8,64.,4.8
1979-03-01 21:23:41.360 ,0,0,,0,0.,4.8,0.,4.8,,0,0.,4.8,78.,4.8
1979-03-01 21:23:46.160 ,0,0,,0,0.,4.8,0.,4.8,,0,0.,4.8,76.,4.8
1979-03-01 21:23:50.960 ,3,0,,0,0.,4.8,0.,4.8,,0,0.,4.8,59.,4.8
1979-03-01 21:23:55.760 ,3,0,,0,0.,4.8,1.,4.8,,0,0.,4.8,68.,4.8
1979-03-01 21:24:00.560 ,3,0,,0,0.,4.8,1.,4.8,,0,0.,4.8,33.,4.8
1979-03-01 21:24:05.360 ,3,0,,0,0.,4.8,0.,4.8,,0,0.,4.8,40.,4.8
1979-03-01 21:24:10.160 ,3,0,,0,0.,4.8,0.,4.8,,0,0.,4.8,38.,4.8
1979-03-01 21:24:14.960 ,2,0,,0,0.,4.8,2.,4.8,,0,0.,4.8,35.,4.8
1979-03-01 21:24:19.760 ,2,0,,0,0.,4.8,0.,4.8,,0,0.,4.8,30.,4.8
1979-03-01 21:24:24.560 ,2,0,,0,0.,4.8,0.,4.8,,0,0.,4.8,21.,4.8
1979-03-01 21:24:29.360 ,2,0,,0,0.,4.8,0.,4.8,,0,0.,4.8,24.,4.8
1979-03-01 21:24:34.160 ,2,0,,0,0.,4.8,0.,4.8,,0,0.,4.8,28.,4.8
1979-03-01 21:24:38.960 ,1,0,,0,0.,4.8,0.,4.8,,0,0.,4.8,21.,4.8
1979-03-01 21:24:43.760 ,1,0,,0,0.,4.8,1.,4.8,,0,0.,4.8,28.,4.8
1979-03-01 21:24:48.560 ,1,0,,0,1.,4.8,0.,4.8,,0,0.,4.8,21.,4.8
1979-03-01 21:24:53.360 ,1,0,,0,0.,4.8,0.,4.8,,0,0.,4.8,25.,4.8
1979-03-01 21:24:58.160 ,1,0,,0,0.,4.8,0.,4.8,,0,0.,4.8,17.,4.8
1979-03-01 21:25:02.960 ,0,0,,0,0.,4.8,0.,4.8,,0,0.,4.8,28.,4.8
1979-03-01 21:25:07.760 ,0,0,,0,0.,4.8,0.,4.8,,0,0.,4.8,26.,4.8
1979-03-01 21:25:12.560 ,0,0,,0,0.,4.8,0.,4.8,,0,0.,4.8,38.,4.8
1979-03-01 21:25:17.360 ,0,0,,0,0.,4.8,0.,4.8,,0,0.,4.8,33.,4.8
1979-03-01 21:25:22.160 ,0,0,,0,0.,4.8,0.,4.8,,0,0.,4.8,45.,4.8
1979-03-01 21:25:26.960 ,0,0,,0,0.,4.8,0.,4.8,,0,0.,4.8,41.,4.8
1979-03-01 21:25:31.760 ,0,0,,0,0.,4.8,0.,4.8,,0,0.,4.8,32.,4.8
1979-03-01 21:25:36.560 ,0,0,,0,0.,4.8,0.,4.8,,0,0.,4.8,30.,4.8
1979-03-01 21:25:41.360 ,0,0,,0,0.,4.8,0.,4.8,,0,0.,4.8,45.,4.8
1979-03-01 21:25:46.160 ,0,0,,0,0.,4.8,1.,4.8,,0,0.,4.8,32.,4.8
1979-03-01 21:25:50.960 ,1,0,,0,0.,4.8,1.,4.8,,0,0.,4.8,39.,4.8
1979-03-01 21:25:55.760 ,1,0,,0,0.,4.8,0.,4.8,,0,0.,4.8,35.,4.8
1979-03-01 21:26:00.560 ,1,0,,0,0.,4.8,0.,4.8,,0,0.,4.8,20.,4.8
1979-03-01 21:26:05.360 ,1,0,,0,0.,4.8,0.,4.8,,0,0.,4.8,17.,4.8
1979-03-01 21:26:10.160 ,1,0,,0,0.,4.8,1.,4.8,,0,0.,4.8,20.,4.8
1979-03-01 21:26:14.960 ,2,0,,0,0.,4.8,1.,4.8,,0,0.,4.8,24.,4.8
1979-03-01 21:26:19.760 ,2,0,,0,0.,4.8,0.,4.8,,0,0.,4.8,19.,4.8
1979-03-01 21:26:24.560 ,2,0,,0,0.,4.8,0.,4.8,,0,0.,4.8,20.,4.8
1979-03-01 21:26:29.360 ,2,0,,0,0.,4.8,0.,4.8,,0,0.,4.8,15.,4.8
1979-03-01 21:26:34.160 ,2,0,,0,0.,4.8,0.,4.8,,0,0.,4.8,23.,4.8
1979-03-01 21:26:38.960 ,3,0,,0,0.,4.8,1.,4.8,,0,0.,4.8,16.,4.8
1979-03-01 21:26:43.760 ,3,0,,0,0.,4.8,0.,4.8,,0,0.,4.8,28.,4.8
1979-03-01 21:26:48.560 ,3,0,,0,0.,4.8,2.,4.8,,0,0.,4.8,45.,4.8
1979-03-01 21:26:53.360 ,3,0,,0,0.,4.8,1.,4.8,,0,0.,4.8,37.,4.8
1979-03-01 21:26:58.160 ,3,0,,0,0.,4.8,0.,4.8,,0,0.,4.8,46.,4.8
1979-03-01 21:27:02.960 ,4,0,,0,0.,4.8,0.,4.8,,0,0.,4.8,34.,4.8
1979-03-01 21:27:07.760 ,4,0,,0,0.,4.8,2.,4.8,,0,0.,4.8,44.,4.8
1979-03-01 21:27:12.560 ,4,0,,0,0.,4.8,0.,4.8,,0,0.,4.8,80.,4.8
1979-03-01 21:27:17.360 ,4,0,,0,0.,4.8,0.,4.8,,0,0.,4.8,74.,4.8
1979-03-01 21:27:22.160 ,4,0,,0,0.,4.8,0.,4.8,,0,0.,4.8,66.,4.8
1979-03-01 21:27:26.960 ,5,0,,0,0.,4.8,0.,4.8,,0,0.,4.8,61.,4.8
1979-03-01 21:27:31.760 ,5,0,,0,0.,4.8,0.,4.8,,0,0.,4.8,78.,4.8
1979-03-01 21:27:36.560 ,5,0,,0,0.,4.8,0.,4.8,,0,0.,4.8,96.,4.8
1979-03-01 21:27:41.360 ,5,0,,0,0.,4.8,1.,4.8,,0,0.,4.8,90.,4.8
1979-03-01 21:27:46.160 ,5,0,,0,0.,4.8,1.,4.8,,0,0.,4.8,104.,4.8
1979-03-01 21:27:50.960 ,6,0,,0,0.,4.8,0.,4.8,,0,0.,4.8,108.,4.8
1979-03-01 21:27:55.760 ,6,0,,0,0.,4.8,0.,4.8,,0,0.,4.8,126.,4.8
1979-03-01 21:28:00.560 ,6,0,,0,0.,4.8,1.,4.8,,0,0.,4.8,136.,4.8
1979-03-01 21:28:05.360 ,6,0,,0,0.,4.8,0.,4.8,,0,0.,4.8,122.,4.8
1979-03-01 21:28:10.160 ,6,0,,0,0.,4.8,0.,4.8,,0,0.,4.8,118.,4.8
1979-03-01 21:28:14.960 ,7,0,,0,0.,4.8,0.,4.8,,0,0.,4.8,108.,4.8
1979-03-01 21:28:19.760 ,7,0,,0,0.,4.8,0.,4.8,,0,0.,4.8,74.,4.8
1979-03-01 21:28:24.560 ,7,0,,0,0.,4.8,0.,4.8,,0,0.,4.8,0.,4.8
1979-03-01 21:28:29.360 ,7,0,,0,0.,4.8,1.,4.8,,0,0.,4.8,0.,4.8
1979-03-01 21:28:34.160 ,7,0,,0,0.,4.8,0.,4.8,,0,0.,4.8,0.,4.8
1979-03-01 21:28:38.960 ,7,0,,0,0.,4.8,1.,4.8,,0,0.,4.8,0.,4.8
1979-03-01 21:28:43.760 ,7,0,,0,0.,4.8,0.,4.8,,0,0.,4.8,0.,4.8
1979-03-01 21:28:48.560 ,7,0,,0,0.,4.8,0.,4.8,,0,0.,4.8,0.,4.8
1979-03-01 21:28:53.360 ,7,0,,0,0.,4.8,0.,4.8,,0,0.,4.8,0.,4.8
1979-03-01 21:28:58.160 ,7,0,,0,0.,4.8,1.,4.8,,0,0.,4.8,0.,4.8
1979-03-01 21:29:02.960 ,6,0,,0,0.,4.8,0.,4.8,,0,0.,4.8,0.,4.8
1979-03-01 21:29:07.760 ,6,0,,0,0.,4.8,0.,4.8,,0,0.,4.8,34.,4.8
1979-03-01 21:29:12.560 ,6,0,,0,0.,4.8,0.,4.8,,0,0.,4.8,100.,4.8
1979-03-01 21:29:17.360 ,6,0,,0,1.,4.8,0.,4.8,,0,0.,4.8,102.,4.8
1979-03-01 21:29:22.160 ,6,0,,0,0.,4.8,0.,4.8,,0,1.,4.8,114.,4.8
1979-03-01 21:29:26.960 ,5,0,,0,0.,4.8,1.,4.8,,0,0.,4.8,112.,4.8
1979-03-01 21:29:31.760 ,5,0,,0,0.,4.8,0.,4.8,,0,0.,4.8,100.,4.8
1979-03-01 21:29:36.560 ,5,0,,0,0.,4.8,0.,4.8,,0,0.,4.8,98.,4.8
1979-03-01 21:29:41.360 ,5,0,,0,0.,4.8,1.,4.8,,0,0.,4.8,92.,4.8
1979-03-01 21:29:46.160 ,5,0,,0,0.,4.8,1.,4.8,,0,0.,4.8,102.,4.8
1979-03-01 21:29:50.960 ,4,0,,0,0.,4.8,1.,4.8,,0,0.,4.8,82.,4.8
1979-03-01 21:29:55.760 ,4,0,,0,0.,4.8,0.,4.8,,0,0.,4.8,61.,4.8